DLA9PM EDDM-LIMJ

Flight info

Callsign DLA9PM
Flight time N/A
Altitude 41000
Route TURBU6E/08R TURBU Y107 TOBSO DCT BAKOR DCT OSKOR DCT MONEB
Aircraft E190/M-SDE2E3FGIRWY/LB1

Departure

Time 2026-04-30 12:58
Airport Munich Airport (EDDM)

Arrival

Time N/A
Airport Genoa Cristoforo Colombo Airport (LIMJ)
Time Latitude Longitude Altitude Speed Heading
2026-04-30 12:21 48.35048 11.80483 1484 ft 0 kts 173°
2026-04-30 12:43 48.35050 11.80483 1484 ft 2 kts 173°
2026-04-30 12:43 48.35076 11.80478 1481 ft 4 kts 173°
2026-04-30 12:43 48.35101 11.80474 1471 ft 2 kts 173°
2026-04-30 12:43 48.35123 11.80474 1473 ft 4 kts 212°
2026-04-30 12:44 48.35138 11.80502 1474 ft 4 kts 258°
2026-04-30 12:44 48.35142 11.80539 1474 ft 3 kts 263°
2026-04-30 12:44 48.35142 11.80543 1474 ft 0 kts 263°
2026-04-30 12:48 48.35140 11.80519 1472 ft 7 kts 263°
2026-04-30 12:48 48.35131 11.80395 1482 ft 14 kts 263°
2026-04-30 12:48 48.35111 11.80225 1480 ft 21 kts 265°
2026-04-30 12:49 48.35094 11.80009 1480 ft 21 kts 262°
2026-04-30 12:49 48.35077 11.79783 1481 ft 22 kts 264°
2026-04-30 12:49 48.35055 11.79559 1474 ft 17 kts 239°
2026-04-30 12:49 48.34961 11.79539 1480 ft 14 kts 174°
2026-04-30 12:50 48.34843 11.79559 1474 ft 22 kts 173°
2026-04-30 12:50 48.34786 11.79496 1484 ft 13 kts 262°
2026-04-30 12:50 48.34772 11.79286 1480 ft 24 kts 262°
2026-04-30 12:50 48.34749 11.79007 1478 ft 27 kts 263°
2026-04-30 12:51 48.34728 11.78724 1484 ft 28 kts 264°
2026-04-30 12:51 48.34705 11.78427 1484 ft 29 kts 264°
2026-04-30 12:51 48.34680 11.78115 1480 ft 31 kts 263°
2026-04-30 12:51 48.34655 11.77787 1484 ft 32 kts 263°
2026-04-30 12:52 48.34629 11.77445 1484 ft 34 kts 262°
2026-04-30 12:52 48.34602 11.77092 1484 ft 35 kts 264°
2026-04-30 12:52 48.34574 11.76756 1484 ft 23 kts 262°
2026-04-30 12:52 48.34468 11.76700 1479 ft 15 kts 174°
2026-04-30 12:53 48.34391 11.76799 1484 ft 16 kts 114°
2026-04-30 12:53 48.34368 11.76877 1477 ft 0 kts 113°
2026-04-30 12:56 48.34360 11.76905 1476 ft 9 kts 113°
2026-04-30 12:56 48.34318 11.77053 1478 ft 20 kts 113°
2026-04-30 12:56 48.34257 11.77248 1477 ft 20 kts 128°
2026-04-30 12:57 48.34240 11.77322 1484 ft 0 kts 84°
2026-04-30 12:57 48.34257 11.77553 1484 ft 59 kts 83°
2026-04-30 12:57 48.34333 11.78547 1482 ft 131 kts 83°
2026-04-30 12:58 48.34457 11.80140 1791 ft 169 kts 83°
2026-04-30 12:58 48.34595 11.82016 2504 ft 188 kts 84°
2026-04-30 12:58 48.34731 11.83999 3108 ft 192 kts 84°
2026-04-30 12:58 48.34875 11.85989 3722 ft 195 kts 83°
2026-04-30 12:59 48.35035 11.88028 4298 ft 198 kts 83°
2026-04-30 12:59 48.35197 11.90091 4859 ft 200 kts 83°
2026-04-30 12:59 48.35355 11.92151 5394 ft 202 kts 83°
2026-04-30 12:59 48.35388 11.94271 5904 ft 205 kts 99°
2026-04-30 13:00 48.34830 11.96239 6371 ft 208 kts 127°
2026-04-30 13:00 48.33787 11.97748 6829 ft 210 kts 141°
2026-04-30 13:00 48.32580 11.98993 7260 ft 212 kts 153°
2026-04-30 13:00 48.31159 11.99601 7656 ft 215 kts 176°
2026-04-30 13:01 48.29654 11.99543 8052 ft 217 kts 183°
2026-04-30 13:01 48.28630 11.99454 8318 ft 219 kts 184°
2026-04-30 13:01 48.27096 11.99295 8647 ft 226 kts 184°
2026-04-30 13:01 48.25498 11.99111 8828 ft 237 kts 184°
2026-04-30 13:02 48.23834 11.98918 9100 ft 243 kts 184°
2026-04-30 13:02 48.22144 11.98726 9336 ft 250 kts 184°
2026-04-30 13:02 48.20382 11.98518 9561 ft 258 kts 184°
2026-04-30 13:02 48.17926 11.98219 9704 ft 271 kts 185°
2026-04-30 13:03 48.16677 11.98062 9843 ft 273 kts 185°
2026-04-30 13:03 48.14775 11.97836 10120 ft 275 kts 184°
2026-04-30 13:03 48.12864 11.97609 10417 ft 276 kts 184°
2026-04-30 13:03 48.10951 11.97379 10731 ft 276 kts 185°
2026-04-30 13:04 48.09034 11.97147 11056 ft 277 kts 185°
2026-04-30 13:04 48.07115 11.96912 11382 ft 277 kts 185°
2026-04-30 13:04 48.05192 11.96672 11711 ft 278 kts 185°
2026-04-30 13:04 48.03262 11.96430 12031 ft 279 kts 185°
2026-04-30 13:05 48.01326 11.96184 12352 ft 280 kts 185°
2026-04-30 13:05 47.99379 11.95931 12672 ft 282 kts 185°
2026-04-30 13:05 47.97422 11.95677 12991 ft 283 kts 185°
2026-04-30 13:06 47.93478 11.95151 13648 ft 286 kts 185°
2026-04-30 13:06 47.91492 11.94879 13970 ft 287 kts 185°
2026-04-30 13:06 47.89494 11.94704 14287 ft 289 kts 180°
2026-04-30 13:06 47.87479 11.94708 14609 ft 290 kts 180°
2026-04-30 13:07 47.85454 11.94683 14930 ft 292 kts 180°
2026-04-30 13:07 47.83420 11.94657 15256 ft 293 kts 180°
2026-04-30 13:07 47.81373 11.94626 15571 ft 295 kts 180°
2026-04-30 13:07 47.79315 11.94593 15881 ft 296 kts 180°
2026-04-30 13:08 47.77244 11.94558 16179 ft 299 kts 180°
2026-04-30 13:08 47.75159 11.94522 16503 ft 300 kts 181°
2026-04-30 13:08 47.73066 11.94485 16816 ft 301 kts 180°
2026-04-30 13:08 47.70965 11.94450 17118 ft 303 kts 180°
2026-04-30 13:09 47.68852 11.94418 17395 ft 305 kts 180°
2026-04-30 13:09 47.66749 11.94383 17661 ft 309 kts 180°
2026-04-30 13:09 47.64595 11.94350 18005 ft 310 kts 180°
2026-04-30 13:09 47.62446 11.94316 18583 ft 301 kts 180°
2026-04-30 13:10 47.60315 11.94281 18694 ft 312 kts 180°
2026-04-30 13:10 47.58106 11.94246 18798 ft 321 kts 180°
2026-04-30 13:10 47.55852 11.94208 18955 ft 326 kts 180°
2026-04-30 13:10 47.53576 11.94173 19169 ft 327 kts 180°
2026-04-30 13:11 47.51291 11.94134 19342 ft 330 kts 180°
2026-04-30 13:11 47.48998 11.94097 19612 ft 329 kts 180°
2026-04-30 13:11 47.46714 11.94058 19820 ft 328 kts 180°
2026-04-30 13:11 47.44434 11.94022 19963 ft 328 kts 180°
2026-04-30 13:12 47.42141 11.93835 20042 ft 332 kts 186°
2026-04-30 13:12 47.39839 11.93373 20247 ft 333 kts 188°
2026-04-30 13:12 47.37535 11.92913 20358 ft 336 kts 187°
2026-04-30 13:13 47.32839 11.91977 20569 ft 347 kts 187°
2026-04-30 13:13 47.30434 11.91499 20694 ft 349 kts 187°
2026-04-30 13:13 47.25632 11.90550 20923 ft 347 kts 187°
2026-04-30 13:14 47.23242 11.90080 20978 ft 347 kts 187°
2026-04-30 13:14 47.20841 11.89605 20990 ft 349 kts 187°
2026-04-30 13:14 47.15999 11.88653 21173 ft 351 kts 187°
2026-04-30 13:15 47.13572 11.88177 21205 ft 354 kts 187°
2026-04-30 13:15 47.08581 11.87199 21423 ft 378 kts 187°
2026-04-30 13:15 47.05945 11.86688 21961 ft 384 kts 187°
2026-04-30 13:16 47.03271 11.86167 22431 ft 392 kts 187°
2026-04-30 13:16 47.00554 11.85625 23042 ft 396 kts 189°
2026-04-30 13:16 46.97863 11.84752 23734 ft 396 kts 193°
2026-04-30 13:17 46.92475 11.82987 25089 ft 399 kts 192°
2026-04-30 13:17 46.89767 11.82116 25825 ft 397 kts 192°
2026-04-30 13:17 46.84321 11.80371 26925 ft 402 kts 192°
2026-04-30 13:18 46.81578 11.79497 27247 ft 410 kts 192°
2026-04-30 13:18 46.75900 11.77696 27790 ft 423 kts 192°
2026-04-30 13:18 46.73023 11.76786 28288 ft 424 kts 192°
2026-04-30 13:19 46.70110 11.75868 28515 ft 431 kts 192°
2026-04-30 13:19 46.67159 11.74936 28895 ft 434 kts 192°
2026-04-30 13:19 46.64211 11.74010 29372 ft 434 kts 192°
2026-04-30 13:19 46.61340 11.72633 29567 ft 441 kts 208°
2026-04-30 13:20 46.58941 11.69877 29947 ft 441 kts 228°
2026-04-30 13:20 46.56974 11.66497 30572 ft 436 kts 230°
2026-04-30 13:20 46.55014 11.63127 30941 ft 437 kts 230°
2026-04-30 13:20 46.53051 11.59758 31380 ft 436 kts 230°
2026-04-30 13:21 46.51091 11.56406 31690 ft 439 kts 230°
2026-04-30 13:21 46.49138 11.53050 32301 ft 431 kts 229°
2026-04-30 13:21 46.47195 11.49742 32759 ft 427 kts 230°
2026-04-30 13:22 46.43340 11.43179 33362 ft 428 kts 229°
2026-04-30 13:22 46.41411 11.39893 33662 ft 428 kts 229°
2026-04-30 13:22 46.37554 11.33353 34379 ft 425 kts 229°
2026-04-30 13:23 46.35645 11.30122 34864 ft 419 kts 229°
2026-04-30 13:23 46.31884 11.23757 35383 ft 418 kts 229°
2026-04-30 13:24 46.28090 11.17336 35673 ft 423 kts 230°
2026-04-30 13:24 46.24252 11.10835 36009 ft 428 kts 230°
2026-04-30 13:25 46.20427 11.04365 36700 ft 423 kts 229°
2026-04-30 13:25 46.16624 10.97921 37022 ft 426 kts 229°
2026-04-30 13:26 46.06835 10.81434 37030 ft 435 kts 229°
2026-04-30 13:28 45.97067 10.65053 37047 ft 432 kts 229°
2026-04-30 13:28 45.91189 10.55227 37029 ft 433 kts 229°
2026-04-30 13:29 45.83313 10.42121 37031 ft 431 kts 229°
2026-04-30 13:31 45.73554 10.25979 37002 ft 419 kts 229°
2026-04-30 13:31 45.67623 10.16280 34585 ft 431 kts 229°
2026-04-30 13:32 45.63368 10.10488 33430 ft 417 kts 213°
2026-04-30 13:32 45.58446 10.06228 32306 ft 417 kts 211°
2026-04-30 13:33 45.53430 10.01923 31180 ft 423 kts 211°
2026-04-30 13:33 45.48359 9.97566 30046 ft 427 kts 211°
2026-04-30 13:34 45.45812 9.95378 29486 ft 428 kts 211°
2026-04-30 13:34 45.38161 9.88812 27766 ft 424 kts 211°
2026-04-30 13:35 45.35644 9.86655 27206 ft 420 kts 211°
2026-04-30 13:35 45.30676 9.82403 26100 ft 413 kts 211°
2026-04-30 13:36 45.25794 9.78230 25003 ft 406 kts 211°
2026-04-30 13:36 45.23383 9.76172 24474 ft 403 kts 211°